Home > Weather > Fribourg > Past weeks

Flag for Switzerland Weather for the Past 2 Weeks in Fribourg, Fribourg, Switzerland

Now
46 °F

Sprinkles. Passing clouds.


Feels Like: 41 °F
Forecast: 33 / 37 °F
Wind: 12 mph from Southwest

Location: Payerne

Current Time: Feb 9, 2016 at 1:37:38 AM

Latest Report: Feb 9, 2016 at 12:50 AM


Visibility: N/A

Pressure: 29.89 "Hg (27.80 "Hg at 596m altitude)

Humidity: 87%

Dew point: 43 °F

Location of FribourgLocation

Historic Weather in Fribourg — Graph

°F

Fribourg Temperature Yesterday

Maximum temperature yesterday: 52 °F (at 1:50 PM)
Minimum temperature yesterday: 37 °F (at 2:50 AM)
Average temperature yesterday: 45 °F

High & Low Weather Summary for the Past Weeks

 TemperatureHumidityPressure
High57 °F (Feb 1, 1:50 PM)100% (Jan 24, 11:50 PM)30.54 "Hg (Jan 24, 11:50 PM)
Low28 °F (Jan 25, 4:50 AM)58% (Feb 8, 1:50 PM)29.62 "Hg (Feb 7, 8:50 AM)
Average42 °F88%30.27 "Hg
* Reported Jan 24 11:50 PM — Feb 8 11:50 PM, Fribourg, Weather by CustomWeather, © 2016

Note: Actual official high and low records may vary slightly from our data, if they occured in-between our weather recording intervals... More about our weather records

Advertising

Fribourg Weather History for the Previous 24 Hours

 ConditionsComfort  
Time TempWeatherWind HumidityBarometerVisibility
11:50 PM
Mon, Feb 8
46 °FRain showers. Mostly cloudy.22 mph82%29.92 "HgN/A
10:50 PM48 °FSprinkles. Partly cloudy.22 mph76%29.89 "HgN/A
9:50 PM48 °FPassing clouds.25 mph82%29.89 "HgN/A
8:50 PM48 °FPartly cloudy.23 mph82%29.89 "HgN/A
7:50 PM48 °FPassing clouds.25 mph82%29.86 "HgN/A
6:50 PM48 °FLight rain. Overcast.24 mph82%29.86 "HgN/A
5:50 PM48 °FSprinkles. Passing clouds.25 mph82%29.83 "HgN/A
4:50 PM48 °FLight rain. Mostly cloudy.23 mph82%29.80 "HgN/A
3:50 PM52 °FScattered clouds.24 mph67%29.77 "HgN/A
2:50 PM52 °FSprinkles. Partly sunny.29 mph62%29.77 "HgN/A
1:50 PM52 °FOvercast.25 mph58%29.77 "HgN/A
12:50 PM50 °FPartly sunny.30 mph62%29.77 "HgN/A
11:50 AM48 °FPartly sunny.18 mph66%29.80 "HgN/A
10:50 AM45 °FScattered clouds.17 mph71%29.83 "HgN/A
9:50 AM43 °FScattered clouds.6 mph76%29.86 "HgN/A
8:50 AM39 °FPartly sunny.6 mph81%29.86 "HgN/A
7:50 AM41 °FOvercast.7 mph76%29.89 "HgN/A
6:50 AM39 °FOvercast.5 mph81%29.89 "HgN/A
5:50 AM39 °FOvercast.12 mph81%29.92 "HgN/A
4:50 AM37 °FPassing clouds.7 mph87%29.92 "HgN/A
3:50 AM37 °FPassing clouds.7 mph87%29.92 "HgN/A
2:50 AM37 °FPassing clouds.8 mph87%29.95 "HgN/A
Weather by CustomWeather, © 2016

See weather overviewHow to use our weather pages